Beaufort MCAS, SC

4:59 AM EDT on September 20, 2017 (GMT -0400)
Beaufort Marine Corps Air Station

Weather History for KNBC - August, 2013

Change the Weather History Date:

Thursday, August 29, 2013

  Actual Average Record
Temperature  
Mean Temperature 83 °F -  
Max Temperature 93 °F 87 °F 99 °F (1933)
Min Temperature 73 °F 71 °F 33 °F (1996)
Cooling Degree Days 18    
Growing Degree Days 33 (Base 50)    
Moisture  
Dew Point 71 °F    
Average Humidity 71    
Maximum Humidity 87    
Minimum Humidity 47    
Precipitation  
Precipitation 0.19 in - - ()
Sea Level Pressure  
Sea Level Pressure 29.94 in    
Wind  
Wind Speed 7 mph (West)    
Max Wind Speed 17 mph    
Max Gust Speed 28 mph    
Visibility 10 miles    
Events Rain , Thunderstorm    
Averages and records for this station are not official NWS values.
T = Trace of Precipitation, MM = Missing Value Source: NWS Daily Summary

Daily Weather History Graph

Daily Weather History Graph

Search for Another Location

Airport or City:

Trip Planner

Search our weather history database for the weather conditions in past years. The results will help you decide how hot, cold, wet, or windy it might be!

Date:

Astronomy

Aug. 29, 2013 Rise Set
Actual Time 6:56 AM EDT 7:50 PM EDT
Civil Twilight 6:30 AM EDT 8:15 PM EDT
Nautical Twilight 6:01 AM EDT 8:45 PM EDT
Astronomical Twilight 5:30 AM EDT 9:16 PM EDT
Moon 12:56 AM EDT (8/29) 3:08 PM EDT (8/29)
Length of Visible Light 13h 45m
Length of Day
12h 54m
Last Quarter, 38% of the Moon is Illuminated
Aug 29
Last Quarter
Sep 5
New
Sep 12
First Quarter
Sep 19
Full
Sep 26
Last Quarter

Hourly Weather History & Observations

Time (EDT) Temp. Heat Index Dew Point Humidity Pressure Visibility Wind Dir Wind Speed Gust Speed Precip Events Conditions
12:56 AM 75.9 °F - 71.1 °F 85% 30.00 in 10.0 mi SW 4.6 mph - N/A   Clear
1:56 AM 75.9 °F - 71.1 °F 85% 29.98 in 10.0 mi SW 6.9 mph - N/A   Clear
2:56 AM 75.9 °F - 71.1 °F 85% 29.98 in 10.0 mi SW 6.9 mph - N/A   Clear
3:56 AM 75.9 °F - 70.0 °F 82% 29.97 in 10.0 mi SW 8.1 mph - N/A   Clear
4:56 AM 75.9 °F - 69.1 °F 79% 29.96 in 10.0 mi WSW 9.2 mph - N/A   Clear
5:56 AM 73.9 °F - 69.1 °F 85% 29.97 in 10.0 mi WSW 5.8 mph - N/A   Clear
6:56 AM 73.0 °F - 69.1 °F 87% 29.97 in 10.0 mi SW 3.5 mph - N/A   Partly Cloudy
7:56 AM 75.0 °F - 69.1 °F 82% 29.98 in 10.0 mi SW 5.8 mph - N/A   Clear
8:56 AM 79.0 °F - 69.1 °F 72% 29.98 in 10.0 mi West 8.1 mph - N/A   Partly Cloudy
9:56 AM 82.9 °F 87.0 °F 70.0 °F 65% 29.97 in 10.0 mi West 8.1 mph - N/A   Clear
10:56 AM 87.1 °F 93.6 °F 72.0 °F 61% 29.96 in 10.0 mi West 8.1 mph - N/A   Clear
11:56 AM 89.1 °F 97.0 °F 73.0 °F 59% 29.95 in 10.0 mi West 6.9 mph - N/A   Clear
12:56 PM 91.0 °F 98.2 °F 72.0 °F 53% 29.94 in 10.0 mi West 9.2 mph - N/A   Clear
1:56 PM 91.9 °F 99.5 °F 72.0 °F 52% 29.92 in 10.0 mi West 10.4 mph - N/A   Clear
2:56 PM 93.9 °F 100.8 °F 71.1 °F 47% 29.91 in 10.0 mi NNW 8.1 mph - N/A   Partly Cloudy
3:56 PM 91.9 °F 99.5 °F 72.0 °F 52% 29.90 in 10.0 mi WNW 9.2 mph - N/A   Scattered Clouds
4:56 PM 93.0 °F 100.7 °F 72.0 °F 50% 29.89 in 10.0 mi West 6.9 mph - N/A   Partly Cloudy
5:56 PM 91.9 °F 97.4 °F 70.0 °F 48% 29.88 in 10.0 mi West 6.9 mph - N/A   Clear
6:56 PM 90.0 °F 96.9 °F 72.0 °F 55% 29.88 in 10.0 mi West 4.6 mph - N/A   Clear
7:56 PM 87.1 °F 96.3 °F 75.0 °F 67% 29.89 in 9.0 mi SW 3.5 mph - N/A Thunderstorm Thunderstorm
8:39 PM 79.0 °F - 69.1 °F 72% 29.92 in 2.5 mi West 17.3 mph 27.6 mph 0.12 in Rain , Thunderstorm Heavy Thunderstorms and Rain
8:56 PM 75.9 °F - 70.0 °F 82% 29.92 in 7.0 mi West 9.2 mph - 0.19 in Rain , Thunderstorm Light Thunderstorms and Rain
9:56 PM 77.0 °F - 72.0 °F 84% 29.92 in 10.0 mi WSW 8.1 mph - 0.00 in Thunderstorm Thunderstorm
10:09 PM 77.0 °F - 72.0 °F 84% 29.92 in 10.0 mi NW 3.5 mph - N/A   Scattered Clouds
10:56 PM 75.9 °F - 72.0 °F 87% 29.92 in 10.0 mi Calm Calm - N/A   Clear
11:56 PM 78.1 °F - 72.0 °F 81% 29.93 in 10.0 mi NE 6.9 mph - N/A   Scattered Clouds